Voltar ao catálogo

STARLINK-31674

AtivoComunicaçõesVLEO
NORAD 59517·PAYLOAD·🇺🇸 United States

Lançado Apr 17, 2024 de Cape Canaveral Space Force Station

Loading…

Próximas Passagens (próximas 24 horas)

TLE

AtualizadoSource: CelesTrak SupGP

Época: Sep 15, 2026, 02:40 UTC

1 59517C 24073G   26258.11159722  .00043067  00000+0  15592-2 0  2585
2 59517  43.0019 328.1800 0001454 269.9160 184.4693 15.27572022    14

Acompanhe STARLINK-31674 em tempo real com AllMySat

Download on the App Store